Hourly Weather Roundup
Issued by NWS Central Illinois

Home | Current Version | Previous Version | Text Only | Print | Product List | Glossary On
Versions: 1 2 3 4 5 6 7 8 9 10 11 12 13 14 15 16 17 18 19 20 21 22 23 24 25 26 27 28 29 30 31 32 33 34 35 36 37 38 39 40 41 42 43 44 45 46 47 48 49 50
087
NZUS43 KILX 281810
HWRILX

AREA WEATHER ROUNDUP
NATIONAL WEATHER SERVICE, LINCOLN IL
100 PM CDT THU APR 28 2016


CITY           SKY/WX    TMP DP  RH WIND       PRES   REMARKS
BLOOMINGTON    PTSUNNY   63  55  75 N8        29.85F
6HR MIN TEMP:  49; 6HR MAX TEMP:  64;

CHAMPAIGN      MOSUNNY   66  54  65 W8        29.83S
6HR MIN TEMP:  54; 6HR MAX TEMP:  68;

DANVILLE       CLOUDY    61  57  88 N6        29.82S
6HR MIN TEMP:  51; 6HR MAX TEMP:  61;

DECATUR        MOSUNNY   69  50  50 W15G21    29.84R
6HR MIN TEMP:  55; 6HR MAX TEMP:  69;

EFFINGHAM      PTSUNNY   70  55  59 SW12      29.86F
FLORA          MOSUNNY   72  53  50 W9        29.85F
6HR MIN TEMP:  62; 6HR MAX TEMP:  73;

GALESBURG      CLOUDY    58  51  75 SW9       29.85S
JACKSONVILLE   PTSUNNY   63  50  61 W10G17    29.86S
6HR MIN TEMP:  52; 6HR MAX TEMP:  64;

LACON          CLOUDY    56  49  78 CALM      29.86R
6HR MIN TEMP:  47; 6HR MAX TEMP:  57;

LAWRENCEVILLE  MOSUNNY   73  53  49 W9        29.85S
6HR MIN TEMP:  63; 6HR MAX TEMP:  73;

LITCHFIELD     SUNNY     65  49  55 SW12      29.86F
$$


CITY           SKY/WX    TMP DP  RH WIND       PRES   REMARKS
LINCOLN        CLOUDY    68  54  60 SW8       29.84R
6HR MIN TEMP:  53; 6HR MAX TEMP:  68;

MACOMB         CLOUDY    58  51  76 W20       29.88S
MATTOON        MOSUNNY   70  54  56 W13G21    29.84R
6HR MIN TEMP:  54; 6HR MAX TEMP:  70;

MT CARMEL AP   NOT AVBL
OLNEY-NOBLE AP MOSUNNY   70  52  52 SW7       29.86S
PARIS          MOSUNNY   69  56  63 W14       29.84S
6HR MIN TEMP:  56; 6HR MAX TEMP:  69;

PEORIA         PTSUNNY   60  52  74 NE5       29.85R
6HR MIN TEMP:  51; 6HR MAX TEMP:  61; 6HR PCP: TRACE;

PONTIAC        CLOUDY    54  53  96 NE3       29.87F FOG
RANTOUL        PTSUNNY   64  58  80 NW9       29.85R
6HR MIN TEMP:  51; 6HR MAX TEMP:  65;

ROBINSON       MOSUNNY   70  55  58 W12G18    29.85S
6HR MIN TEMP:  60; 6HR MAX TEMP:  70;

SPRINGFIELD    MOSUNNY   67  54  63 W20       29.84S
6HR MIN TEMP:  52; 6HR MAX TEMP:  68;

TAYLORVILLE    MOSUNNY   66  52  59 W14G20    29.84F
$$

...REGIONAL REPORTS...


CITY           SKY/WX    TMP DP  RH WIND       PRES   REMARKS
CHICAGO O`HARE CLOUDY    46  42  86 NE9       29.90R
KANKAKEE       CLOUDY    54  49  83 CALM      29.87S
MOLINE         CLOUDY    53  47  79 E8        29.85S HAZE
MOUNT STERLING CLOUDY    58  48  69 W10       29.88R
MOUNT VERNON   MOSUNNY   72  54  53 SW14      29.87S
PITTSFIELD     PTSUNNY   62  49  61 W13G18    29.89R
QUINCY         CLOUDY    57  48  72 W14       29.89R
ROCKFORD       CLOUDY    50  42  74 NE10      29.92R
$$


CITY           SKY/WX    TMP DP  RH WIND       PRES   REMARKS
BURLINGTON     CLOUDY    55  47  74 W14       29.86R
CEDAR RAPIDS   RAIN      50  50 100 E8        29.84R VSB 1
DES MOINES     CLOUDY    54  46  74 W13       29.87R
KIRKSVILLE     CLOUDY    56  46  69 W10G16    29.90R
OTTUMWA        CLOUDY    52  47  83 NW6       29.86S
ST LOUIS       MOSUNNY   69  48  47 W16G22    29.89R
$$


CITY           SKY/WX    TMP DP  RH WIND       PRES   REMARKS
TERRE HAUTE    PTSUNNY   71  56  58 SW12      29.82S
EVANSVILLE     SUNNY     74  50  42 W13       29.86S
INDIANAPOLIS   PTSUNNY   73  59  61 SW12      29.79F
LAFAYETTE      CLOUDY    58  52  80 NE8       29.84F
MADISON        CLOUDY    41  37  86 E12       29.95R WCI  34
MILWAUKEE      CLOUDY    40  37  89 NE17      29.96S WCI  31
$$






USA.gov is the U.S. government's official web portal to all federal, state and local government web resources and services.